Regional Weather Roundup
Issued by NWS

Home | Current Version | Previous Version | Text Only | Print | Product List | Glossary Off
Versions: 1 2 3 4 5 6 7 8 9 10 11 12 13 14 15 16 17 18 19 20 21 22 23 24 25 26 27 28 29 30 31 32 33 34 35 36 37 38 39 40 41 42 43 44 45 46 47 48 49 50

000
ASUS43 KBIS 051701
RWRND

NORTH DAKOTA REGIONAL WEATHER ROUNDUP
NATIONAL WEATHER SERVICE BISMARCK ND
1100 AM CST THU MAR 05 2015

NOTE: "FAIR" INDICATES FEW OR NO CLOUDS BELOW 12,000 FEET WITH NO
SIGNIFICANT WEATHER AND/OR OBSTRUCTIONS TO VISIBILITY.


NDZ001>003-009>011-017-051800-
NORTHWEST NORTH DAKOTA

CITY           SKY/WX    TMP DP  RH WIND       PRES   REMARKS
WILLISTON        N/A    N/A N/A N/A MISG      30.06F
MINOT          SUNNY     13   1  59 S18       30.06F WCI  -4
MINOT AFB      SUNNY     14   4  64 SW9       30.06S WCI   2
$$

NDZ018>021-031>035-040>046-051800-
SOUTHWEST NORTH DAKOTA

CITY           SKY/WX    TMP DP  RH WIND       PRES   REMARKS
BISMARCK       SUNNY     20   2  45 S7        30.16F WCI  11
DICKINSON      SUNNY     31   8  38 W16       30.02F WCI  20
GARRISON         N/A     11   2  67 S6        30.08F WCI   1
HETTINGER ARPT MOSUNNY   29   6  38 W13       30.07F WCI  19
$$

NDZ004>008-012>016-024-026-027-054-051800-
NORTHEAST NORTH DAKOTA

CITY           SKY/WX    TMP DP  RH WIND       PRES   REMARKS
GRAND FORKS    SUNNY      9  -2  61 S14       30.28F WCI  -7
GRND FRKS AFB  SUNNY     12  -3  50 S15       30.26F WCI  -4
DEVILS LAKE    SUNNY      9  -4  56 CALM      30.16F
$$

NDZ022-023-025-028>030-036>039-047>053-051800-
SOUTHEAST NORTH DAKOTA

CITY           SKY/WX    TMP DP  RH WIND       PRES   REMARKS
FARGO          SUNNY     12  -3  51 S15       30.35F WCI  -4
JAMESTOWN      SUNNY     15   4  61 S15       30.20F WCI   0
$$



USA.gov is the U.S. government's official web portal to all federal, state and local government web resources and services.